| time (UTC) | temp F | wind direction | speed MPH | gust MPH | rain 1hr in | rain 24hr in | rain mn in | humidity % | barometer mb |
| 20260901075059 | 59 | 5 | 0.0 | 2.0 | 0.00 | 0.00 | 0.00 | 81 | 1004.8 |
| 20260901074557 | 59 | 6 | 0.0 | 2.0 | 0.00 | 0.00 | 0.00 | 81 | 1004.8 |
| 20260901074056 | 59 | 6 | 0.0 | 2.0 | 0.00 | 0.00 | 0.00 | 81 | 1004.8 |
| 20260901073555 | 59 | 5 | 1.0 | 2.0 | 0.00 | 0.00 | 0.00 | 81 | 1004.9 |
| 20260901073055 | 59 | 7 | 0.0 | 2.0 | 0.00 | 0.00 | 0.00 | 80 | 1004.9 |
| 20260901072555 | 59 | 7 | 0.0 | 3.0 | 0.00 | 0.00 | 0.00 | 80 | 1005.0 |
| 20260901072057 | 59 | 7 | 1.0 | 3.0 | 0.00 | 0.00 | 0.00 | 80 | 1005.1 |
| 20260901071554 | 59 | 23 | 0.0 | 1.0 | 0.00 | 0.00 | 0.00 | 79 | 1005.0 |
| 20260901071053 | 59 | 23 | 0.0 | 2.0 | 0.00 | 0.00 | 0.00 | 79 | 1004.9 |
| 20260901070553 | 59 | 23 | 0.0 | 2.0 | 0.00 | 0.00 | 0.00 | 79 | 1004.9 |
| 20260901070052 | 59 | 23 | 1.0 | 2.0 | 0.00 | 0.00 | 0.00 | 79 | 1004.9 |
| 20260901065557 | 59 | 23 | 1.0 | 2.0 | 0.00 | 0.00 | 0.00 | 79 | 1005.0 |
| 20260901065051 | 59 | 23 | 0.0 | 2.0 | 0.00 | 0.00 | 0.00 | 78 | 1004.9 |
| 20260901064551 | 60 | 23 | 0.0 | 2.0 | 0.00 | 0.00 | 0.00 | 78 | 1004.9 |
| 20260901064051 | 60 | 23 | 0.0 | 9.0 | 0.00 | 0.00 | 0.00 | 79 | 1004.9 |
| 20260901063550 | 60 | 23 | 1.0 | 9.0 | 0.00 | 0.00 | 0.00 | 80 | 1005.0 |
| 20260901063051 | 60 | 256 | 1.0 | 9.0 | 0.00 | 0.00 | 0.00 | 80 | 1004.9 |
| 20260901062550 | 60 | 301 | 0.0 | 4.0 | 0.00 | 0.00 | 0.00 | 81 | 1004.9 |
| 20260901062050 | 60 | 333 | 1.0 | 4.0 | 0.00 | 0.00 | 0.00 | 81 | 1004.9 |
| 20260901061554 | 60 | 8 | 2.0 | 4.0 | 0.00 | 0.00 | 0.00 | 81 | 1004.9 |
| 20260901061050 | 60 | 351 | 1.0 | 4.0 | 0.00 | 0.00 | 0.00 | 81 | 1004.9 |
| 20260901060550 | 60 | 340 | 1.0 | 2.0 | 0.00 | 0.00 | 0.00 | 80 | 1004.9 |
| 20260901060050 | 60 | 342 | 0.0 | 0.0 | 0.00 | 0.00 | 0.00 | 80 | 1005.0 |
| 20260901055552 | 60 | 342 | 0.0 | 1.0 | 0.00 | 0.00 | 0.00 | 80 | 1005.0 |
| 20260901055048 | 60 | 342 | 0.0 | 2.0 | 0.00 | 0.00 | 0.00 | 80 | 1005.1 |
| 20260901054548 | 60 | 342 | 0.0 | 2.0 | 0.00 | 0.00 | 0.00 | 81 | 1005.1 |
| 20260901054048 | 60 | 342 | 1.0 | 3.0 | 0.00 | 0.00 | 0.00 | 82 | 1005.1 |
| 20260901053548 | 60 | 342 | 1.0 | 3.0 | 0.00 | 0.00 | 0.00 | 82 | 1005.2 |
| 20260901053111 | 60 | 331 | 1.0 | 2.0 | 0.00 | 0.00 | 0.00 | 82 | 1005.2 |
| 20260901052547 | 60 | 331 | 0.0 | 2.0 | 0.00 | 0.00 | 0.00 | 82 | 1005.1 |
| 20260901052047 | 60 | 331 | 0.0 | 2.0 | 0.00 | 0.00 | 0.00 | 81 | 1005.1 |
| 20260901051547 | 61 | 331 | 0.0 | 2.0 | 0.00 | 0.00 | 0.00 | 81 | 1005.2 |
| 20260901051047 | 61 | 331 | 0.0 | 3.0 | 0.00 | 0.00 | 0.00 | 81 | 1005.2 |
| 20260901050647 | 61 | 333 | 0.0 | 3.0 | 0.00 | 0.00 | 0.00 | 81 | 1005.2 |
| 20260901050044 | 60 | 352 | 1.0 | 2.0 | 0.00 | 0.00 | 0.00 | 79 | 1005.2 |
| 20260901045542 | 60 | 354 | 0.0 | 2.0 | 0.00 | 0.00 | 0.00 | 79 | 1005.3 |
| 20260901045040 | 61 | 354 | 0.0 | 2.0 | 0.00 | 0.00 | 0.00 | 79 | 1005.3 |
| 20260901044540 | 61 | 354 | 1.0 | 2.0 | 0.00 | 0.00 | 0.00 | 79 | 1005.3 |
| 20260901044040 | 61 | 354 | 0.0 | 2.0 | 0.00 | 0.00 | 0.00 | 79 | 1005.3 |
| 20260901043540 | 61 | 354 | 0.0 | 1.0 | 0.00 | 0.00 | 0.00 | 79 | 1005.4 |
| 20260901043041 | 61 | 354 | 0.0 | 1.0 | 0.00 | 0.00 | 0.00 | 79 | 1005.3 |
| 20260901042542 | 62 | 354 | 0.0 | 1.0 | 0.00 | 0.00 | 0.00 | 80 | 1005.3 |
| 20260901042041 | 62 | 354 | 0.0 | 3.0 | 0.00 | 0.00 | 0.00 | 80 | 1005.2 |
| 20260901041542 | 62 | 354 | 1.0 | 3.0 | 0.00 | 0.00 | 0.00 | 80 | 1005.2 |
| 20260901041040 | 62 | 354 | 1.0 | 3.0 | 0.00 | 0.00 | 0.00 | 79 | 1005.2 |
| 20260901040518 | 62 | 353 | 0.0 | 2.0 | 0.00 | 0.00 | 0.00 | 80 | 1005.2 |
| 20260901040016 | 63 | 354 | 0.0 | 2.0 | 0.00 | 0.00 | 0.00 | 79 | 1005.2 |
| 20260901035518 | 63 | 354 | 1.0 | 2.0 | 0.00 | 0.00 | 0.00 | 79 | 1005.2 |
| 20260901035014 | 63 | 352 | 0.0 | 3.0 | 0.00 | 0.00 | 0.00 | 79 | 1005.2 |
| 20260901034521 | 63 | 352 | 0.0 | 3.0 | 0.00 | 0.00 | 0.00 | 78 | 1005.1 |
| 20260901034014 | 63 | 31 | 0.0 | 2.0 | 0.00 | 0.00 | 0.00 | 78 | 1005.1 |
| 20260901033514 | 63 | 31 | 1.0 | 2.0 | 0.00 | 0.00 | 0.00 | 77 | 1005.1 |
| 20260901033013 | 64 | 31 | 0.0 | 3.0 | 0.00 | 0.00 | 0.00 | 78 | 1005.1 |
| 20260901032514 | 63 | 31 | 0.0 | 3.0 | 0.00 | 0.00 | 0.00 | 78 | 1005.1 |
| 20260901032015 | 64 | 31 | 0.0 | 3.0 | 0.00 | 0.00 | 0.00 | 78 | 1005.2 |
| 20260901031524 | 64 | 175 | 0.0 | 0.0 | 0.00 | 0.00 | 0.00 | 78 | 1005.2 |
| 20260901031012 | 64 | 175 | 0.0 | 0.0 | 0.00 | 0.00 | 0.00 | 78 | 1005.1 |
| 20260901030512 | 64 | 175 | 0.0 | 1.0 | 0.00 | 0.00 | 0.00 | 77 | 1005.2 |
| 20260901030020 | 64 | 175 | 0.0 | 1.0 | 0.00 | 0.00 | 0.00 | 77 | 1005.2 |
| 20260901025512 | 64 | 175 | 0.0 | 1.0 | 0.00 | 0.00 | 0.00 | 77 | 1005.3 |
| 20260901025011 | 65 | 175 | 0.0 | 0.0 | 0.00 | 0.00 | 0.00 | 77 | 1005.4 |
| 20260901024521 | 65 | 175 | 0.0 | 0.0 | 0.00 | 0.00 | 0.00 | 76 | 1005.4 |
| 20260901024014 | 65 | 175 | 0.0 | 0.0 | 0.00 | 0.00 | 0.00 | 75 | 1005.3 |
| 20260901023512 | 65 | 175 | 0.0 | 0.0 | 0.00 | 0.00 | 0.00 | 74 | 1005.4 |
| 20260901023009 | 65 | 175 | 0.0 | 0.0 | 0.00 | 0.00 | 0.00 | 75 | 1005.4 |
| 20260901022509 | 65 | 175 | 0.0 | 0.0 | 0.00 | 0.00 | 0.00 | 74 | 1005.5 |
| 20260901022009 | 65 | 175 | 0.0 | 0.0 | 0.00 | 0.00 | 0.00 | 75 | 1005.6 |
| 20260901021509 | 66 | 175 | 0.0 | 0.0 | 0.00 | 0.00 | 0.00 | 74 | 1005.6 |
| 20260901021009 | 66 | 175 | 0.0 | 0.0 | 0.00 | 0.00 | 0.00 | 73 | 1005.6 |
| 20260901020509 | 66 | 175 | 0.0 | 0.0 | 0.00 | 0.00 | 0.00 | 72 | 1005.6 |
| 20260901020009 | 66 | 175 | 0.0 | 0.0 | 0.00 | 0.00 | 0.00 | 73 | 1005.6 |
| 20260901015507 | 66 | 175 | 0.0 | 1.0 | 0.00 | 0.00 | 0.00 | 71 | 1005.6 |
| 20260901015011 | 67 | 175 | 0.0 | 1.0 | 0.00 | 0.00 | 0.00 | 70 | 1005.7 |
| 20260901014507 | 67 | 175 | 0.0 | 1.0 | 0.00 | 0.00 | 0.00 | 70 | 1005.7 |
| 20260901014006 | 67 | 175 | 0.0 | 2.0 | 0.00 | 0.00 | 0.00 | 69 | 1005.8 |
| 20260901013506 | 67 | 175 | 0.0 | 2.0 | 0.00 | 0.00 | 0.00 | 69 | 1005.8 |
| 20260901013004 | 67 | 175 | 0.0 | 2.0 | 0.00 | 0.00 | 0.00 | 70 | 1005.8 |
| 20260901012506 | 67 | 175 | 0.0 | 1.0 | 0.00 | 0.00 | 0.00 | 70 | 1005.9 |
| 20260901012001 | 67 | 175 | 0.0 | 1.0 | 0.00 | 0.00 | 0.00 | 69 | 1005.9 |
| 20260901011603 | 67 | 175 | 0.0 | 1.0 | 0.00 | 0.00 | 0.00 | 69 | 1006.0 |
| 20260901011100 | 67 | 175 | 0.0 | 1.0 | 0.00 | 0.00 | 0.00 | 69 | 1006.1 |
| 20260901010558 | 68 | 175 | 0.0 | 2.0 | 0.00 | 0.00 | 0.00 | 66 | 1006.2 |
| 20260901010056 | 68 | 175 | 0.0 | 2.0 | 0.00 | 0.00 | 0.00 | 67 | 1006.2 |
| 20260901005555 | 69 | 175 | 0.0 | 2.0 | 0.00 | 0.00 | 0.00 | 66 | 1006.2 |
| 20260901005053 | 69 | 175 | 0.0 | 2.0 | 0.00 | 0.00 | 0.00 | 65 | 1006.3 |
| 20260901004552 | 69 | 180 | 1.0 | 3.0 | 0.00 | 0.00 | 0.00 | 64 | 1006.3 |
| 20260901004052 | 69 | 180 | 1.0 | 3.0 | 0.00 | 0.00 | 0.00 | 64 | 1006.3 |
| 20260901003548 | 70 | 196 | 0.0 | 4.0 | 0.00 | 0.00 | 0.00 | 62 | 1006.3 |
| 20260901003047 | 71 | 196 | 0.0 | 4.0 | 0.00 | 0.00 | 0.00 | 61 | 1006.4 |
| 20260901002548 | 72 | 165 | 0.0 | 3.0 | 0.00 | 0.00 | 0.00 | 60 | 1006.4 |
| 20260901002044 | 71 | 163 | 0.0 | 4.0 | 0.00 | 0.00 | 0.00 | 62 | 1006.5 |
| 20260901001543 | 72 | 127 | 1.0 | 4.0 | 0.00 | 0.00 | 0.00 | 59 | 1006.5 |
| 20260901001041 | 71 | 231 | 1.0 | 4.0 | 0.00 | 0.00 | 0.00 | 60 | 1006.5 |
| 20260901000642 | 71 | 192 | 2.0 | 4.0 | 0.00 | 0.00 | 0.00 | 60 | 1006.6 |
| 20260901000023 | 71 | 176 | 1.0 | 4.0 | 0.00 | 0.00 | 0.00 | 63 | 1006.7 |
| 20260831235521 | 71 | 182 | 1.0 | 4.0 | 0.00 | 0.00 | 0.00 | 65 | 1006.7 |
| 20260831235021 | 69 | 64 | 0.0 | 3.0 | 0.00 | 0.00 | 0.00 | 68 | 1006.8 |
| 20260831234518 | 69 | 106 | 0.0 | 4.0 | 0.00 | 0.00 | 0.00 | 66 | 1006.9 |
| 20260831234019 | 70 | 126 | 1.0 | 4.0 | 0.00 | 0.00 | 0.00 | 64 | 1007.0 |
| 20260831233519 | 71 | 52 | 0.0 | 4.0 | 0.00 | 0.00 | 0.00 | 63 | 1007.0 |
| 20260831233016 | 72 | 34 | 1.0 | 4.0 | 0.00 | 0.00 | 0.00 | 62 | 1007.0 |
| 20260831232516 | 72 | 164 | 2.0 | 6.0 | 0.00 | 0.00 | 0.00 | 60 | 1007.1 |
| 20260831232014 | 71 | 229 | 2.0 | 6.0 | 0.00 | 0.00 | 0.00 | 61 | 1007.1 |
| 20260831231513 | 70 | 186 | 2.0 | 5.0 | 0.00 | 0.00 | 0.00 | 61 | 1007.2 |
| 20260831231013 | 71 | 195 | 2.0 | 5.0 | 0.00 | 0.00 | 0.00 | 61 | 1007.2 |
| 20260831230625 | 72 | 106 | 1.0 | 4.0 | 0.00 | 0.00 | 0.00 | 61 | 1007.2 |
| 20260831230138 | 71 | 93 | 1.0 | 5.0 | 0.00 | 0.00 | 0.00 | 61 | 1007.3 |
| 20260831225558 | 71 | 158 | 2.0 | 5.0 | 0.00 | 0.00 | 0.00 | 61 | 1007.3 |
| 20260831225100 | 71 | 128 | 2.0 | 5.0 | 0.00 | 0.00 | 0.00 | 59 | 1007.4 |
| 20260831224556 | 71 | 134 | 0.0 | 4.0 | 0.00 | 0.00 | 0.00 | 62 | 1007.4 |
| 20260831224058 | 70 | 193 | 0.0 | 6.0 | 0.00 | 0.00 | 0.00 | 60 | 1007.5 |
| 20260831223559 | 71 | 195 | 2.0 | 7.0 | 0.00 | 0.00 | 0.00 | 59 | 1007.6 |
| 20260831223054 | 70 | 132 | 1.0 | 7.0 | 0.00 | 0.00 | 0.00 | 60 | 1007.8 |
| 20260831222553 | 70 | 141 | 2.0 | 4.0 | 0.00 | 0.00 | 0.00 | 60 | 1007.9 |
| 20260831222053 | 70 | 172 | 1.0 | 4.0 | 0.00 | 0.00 | 0.00 | 60 | 1007.9 |
| 20260831221613 | 69 | 191 | 2.0 | 4.0 | 0.00 | 0.00 | 0.00 | 59 | 1007.9 |
| 20260831221052 | 69 | 228 | 0.0 | 5.0 | 0.00 | 0.00 | 0.00 | 63 | 1008.0 |
| 20260831220650 | 69 | 184 | 1.0 | 5.0 | 0.00 | 0.00 | 0.00 | 61 | 1008.1 |
| 20260831220050 | 69 | 182 | 1.0 | 6.0 | 0.00 | 0.00 | 0.00 | 62 | 1008.1 |
| 20260831215548 | 68 | 148 | 3.0 | 5.0 | 0.00 | 0.00 | 0.00 | 60 | 1008.2 |
| 20260831215050 | 69 | 159 | 1.0 | 4.0 | 0.00 | 0.00 | 0.00 | 63 | 1008.2 |
| 20260831214549 | 69 | 111 | 1.0 | 5.0 | 0.00 | 0.00 | 0.00 | 61 | 1008.4 |
| 20260831214047 | 68 | 228 | 2.0 | 8.0 | 0.00 | 0.00 | 0.00 | 62 | 1008.4 |
| 20260831213547 | 69 | 213 | 3.0 | 8.0 | 0.00 | 0.00 | 0.00 | 62 | 1008.4 |
| 20260831213053 | 69 | 163 | 1.0 | 6.0 | 0.00 | 0.00 | 0.00 | 61 | 1008.4 |
| 20260831212547 | 69 | 40 | 1.0 | 8.0 | 0.00 | 0.00 | 0.00 | 65 | 1008.5 |
| 20260831212047 | 69 | 267 | 2.0 | 8.0 | 0.00 | 0.00 | 0.00 | 62 | 1008.5 |
| 20260831211559 | 70 | 151 | 1.0 | 7.0 | 0.00 | 0.00 | 0.00 | 63 | 1008.5 |
| 20260831211045 | 70 | 130 | 2.0 | 5.0 | 0.00 | 0.00 | 0.00 | 60 | 1008.6 |
| 20260831210544 | 70 | 275 | 1.0 | 5.0 | 0.00 | 0.00 | 0.00 | 62 | 1008.5 |
| 20260831210044 | 71 | 140 | 2.0 | 6.0 | 0.00 | 0.00 | 0.00 | 59 | 1008.5 |
| 20260831205543 | 70 | 198 | 2.0 | 6.0 | 0.00 | 0.00 | 0.00 | 63 | 1008.7 |
| 20260831205041 | 70 | 15 | 1.0 | 6.0 | 0.00 | 0.00 | 0.00 | 64 | 1008.8 |
| 20260831204540 | 69 | 150 | 2.0 | 6.0 | 0.00 | 0.00 | 0.00 | 61 | 1008.8 |
| 20260831204040 | 70 | 177 | 2.0 | 5.0 | 0.00 | 0.00 | 0.00 | 61 | 1008.9 |
| 20260831203539 | 69 | 204 | 2.0 | 5.0 | 0.00 | 0.00 | 0.00 | 62 | 1008.9 |
| 20260831203041 | 69 | 139 | 1.0 | 6.0 | 0.00 | 0.00 | 0.00 | 62 | 1009.0 |
| 20260831202537 | 69 | 207 | 1.0 | 5.0 | 0.00 | 0.00 | 0.00 | 60 | 1009.0 |
| 20260831202036 | 68 | 147 | 1.0 | 5.0 | 0.00 | 0.00 | 0.00 | 65 | 1009.0 |
| 20260831201537 | 68 | 156 | 0.0 | 5.0 | 0.00 | 0.00 | 0.00 | 67 | 1009.1 |
| 20260831201037 | 69 | 169 | 1.0 | 4.0 | 0.00 | 0.00 | 0.00 | 65 | 1009.1 |
| 20260831200634 | 68 | 174 | 0.0 | 7.0 | 0.00 | 0.00 | 0.00 | 66 | 1009.2 |
| 20260831200057 | 68 | 160 | 2.0 | 7.0 | 0.00 | 0.00 | 0.00 | 66 | 1009.4 |
| 20260831195557 | 67 | 201 | 1.0 | 5.0 | 0.00 | 0.00 | 0.00 | 65 | 1009.3 |
| 20260831195056 | 68 | 138 | 2.0 | 4.0 | 0.00 | 0.00 | 0.00 | 65 | 1009.4 |
| 20260831194642 | 68 | 101 | 1.0 | 4.0 | 0.00 | 0.00 | 0.00 | 65 | 1009.5 |
| 20260831194054 | 69 | 181 | 1.0 | 8.0 | 0.00 | 0.00 | 0.00 | 64 | 1009.5 |
| 20260831193557 | 68 | 111 | 3.0 | 8.0 | 0.00 | 0.00 | 0.00 | 63 | 1009.6 |
| 20260831193053 | 68 | 190 | 4.0 | 7.0 | 0.00 | 0.00 | 0.00 | 61 | 1009.7 |
| 20260831192551 | 68 | 192 | 2.0 | 6.0 | 0.00 | 0.00 | 0.00 | 62 | 1009.8 |
| 20260831192050 | 68 | 194 | 0.0 | 7.0 | 0.00 | 0.00 | 0.00 | 64 | 1009.8 |
| 20260831191550 | 68 | 54 | 0.0 | 7.0 | 0.00 | 0.00 | 0.00 | 64 | 1009.8 |
| 20260831191052 | 68 | 152 | 0.0 | 7.0 | 0.00 | 0.00 | 0.00 | 63 | 1009.8 |
| 20260831190649 | 67 | 148 | 2.0 | 7.0 | 0.00 | 0.00 | 0.00 | 62 | 1009.9 |
| 20260831190056 | 67 | 206 | 2.0 | 6.0 | 0.00 | 0.00 | 0.00 | 64 | 1010.0 |
| 20260831185549 | 67 | 219 | 2.0 | 7.0 | 0.00 | 0.00 | 0.00 | 64 | 1010.0 |
| 20260831185049 | 67 | 181 | 2.0 | 7.0 | 0.00 | 0.00 | 0.00 | 64 | 1010.1 |
| 20260831184547 | 67 | 177 | 1.0 | 5.0 | 0.00 | 0.00 | 0.00 | 67 | 1010.1 |
| 20260831184046 | 66 | 137 | 2.0 | 5.0 | 0.00 | 0.00 | 0.00 | 67 | 1010.2 |
| 20260831183546 | 66 | 101 | 0.0 | 4.0 | 0.00 | 0.00 | 0.00 | 69 | 1010.3 |
| 20260831183050 | 65 | 141 | 2.0 | 6.0 | 0.00 | 0.00 | 0.00 | 68 | 1010.4 |
| 20260831182545 | 66 | 216 | 1.0 | 6.0 | 0.00 | 0.00 | 0.00 | 69 | 1010.4 |
| 20260831182044 | 66 | 111 | 2.0 | 6.0 | 0.00 | 0.00 | 0.00 | 69 | 1010.5 |
| 20260831181543 | 65 | 165 | 0.0 | 6.0 | 0.00 | 0.00 | 0.00 | 72 | 1010.5 |
| 20260831181042 | 65 | 188 | 3.0 | 7.0 | 0.00 | 0.00 | 0.00 | 70 | 1010.7 |
| 20260831180642 | 65 | 210 | 2.0 | 7.0 | 0.00 | 0.00 | 0.00 | 71 | 1010.6 |
| 20260831180047 | 65 | 40 | 1.0 | 4.0 | 0.00 | 0.00 | 0.00 | 72 | 1010.6 |
| 20260831175546 | 65 | 125 | 1.0 | 5.0 | 0.00 | 0.00 | 0.00 | 74 | 1010.6 |
| 20260831175045 | 64 | 270 | 0.0 | 5.0 | 0.00 | 0.00 | 0.00 | 73 | 1010.6 |
| 20260831174550 | 64 | 126 | 1.0 | 5.0 | 0.00 | 0.00 | 0.00 | 73 | 1010.7 |
| 20260831174044 | 64 | 142 | 2.0 | 4.0 | 0.00 | 0.00 | 0.00 | 72 | 1010.6 |
| 20260831173545 | 63 | 69 | 0.0 | 4.0 | 0.00 | 0.00 | 0.00 | 72 | 1010.7 |
| 20260831173045 | 63 | 60 | 0.0 | 4.0 | 0.00 | 0.00 | 0.00 | 71 | 1010.7 |
| 20260831172540 | 63 | 122 | 0.0 | 3.0 | 0.00 | 0.00 | 0.00 | 72 | 1010.7 |
| 20260831172039 | 62 | 119 | 1.0 | 3.0 | 0.00 | 0.00 | 0.00 | 73 | 1010.7 |
| 20260831171543 | 62 | 125 | 0.0 | 3.0 | 0.00 | 0.00 | 0.00 | 72 | 1010.7 |
| 20260831171039 | 62 | 125 | 1.0 | 3.0 | 0.00 | 0.00 | 0.00 | 73 | 1010.7 |
| 20260831170637 | 61 | 125 | 0.0 | 3.0 | 0.00 | 0.00 | 0.00 | 74 | 1010.7 |
| 20260831170120 | 61 | 123 | 1.0 | 3.0 | 0.00 | 0.00 | 0.00 | 75 | 1010.8 |
| 20260831165542 | 61 | 48 | 0.0 | 2.0 | 0.00 | 0.00 | 0.00 | 76 | 1010.8 |
| 20260831165041 | 60 | 50 | 0.0 | 2.0 | 0.00 | 0.00 | 0.00 | 78 | 1010.7 |
| 20260831164539 | 60 | 48 | 0.0 | 2.0 | 0.00 | 0.00 | 0.00 | 77 | 1010.8 |
| 20260831164042 | 59 | 46 | 1.0 | 2.0 | 0.00 | 0.00 | 0.00 | 78 | 1010.8 |
| 20260831163539 | 59 | 47 | 0.0 | 2.0 | 0.00 | 0.00 | 0.00 | 79 | 1010.9 |
| 20260831163042 | 59 | 46 | 0.0 | 2.0 | 0.00 | 0.00 | 0.00 | 79 | 1010.8 |
| 20260831162536 | 58 | 46 | 0.0 | 2.0 | 0.00 | 0.00 | 0.00 | 80 | 1010.9 |
| 20260831162036 | 58 | 31 | 0.0 | 0.0 | 0.00 | 0.00 | 0.00 | 83 | 1010.9 |
| 20260831161536 | 57 | 25 | 0.0 | 0.0 | 0.00 | 0.00 | 0.00 | 84 | 1011.0 |
| 20260831161037 | 57 | 25 | 0.0 | 2.0 | 0.00 | 0.00 | 0.00 | 85 | 1011.1 |
| 20260831160632 | 56 | 25 | 0.0 | 2.0 | 0.00 | 0.00 | 0.00 | 87 | 1011.2 |
| 20260831160047 | 55 | 25 | 0.0 | 3.0 | 0.00 | 0.00 | 0.00 | 90 | 1011.3 |
| 20260831155546 | 54 | 25 | 1.0 | 3.0 | 0.00 | 0.00 | 0.00 | 90 | 1011.4 |
| 20260831155045 | 53 | 24 | 2.0 | 3.0 | 0.00 | 0.00 | 0.00 | 91 | 1011.5 |
| 20260831154551 | 53 | 26 | 1.0 | 3.0 | 0.00 | 0.00 | 0.00 | 90 | 1011.5 |
| 20260831154043 | 53 | 28 | 1.0 | 3.0 | 0.00 | 0.00 | 0.00 | 91 | 1011.4 |
| 20260831153544 | 53 | 319 | 1.0 | 4.0 | 0.00 | 0.00 | 0.00 | 91 | 1011.4 |
| 20260831153042 | 53 | 228 | 0.0 | 4.0 | 0.00 | 0.00 | 0.00 | 91 | 1011.5 |
| 20260831152542 | 53 | 260 | 1.0 | 5.0 | 0.00 | 0.00 | 0.00 | 91 | 1011.5 |
| 20260831152042 | 53 | 249 | 0.0 | 2.0 | 0.00 | 0.00 | 0.00 | 91 | 1011.5 |
| 20260831151542 | 53 | 249 | 0.0 | 2.0 | 0.00 | 0.00 | 0.00 | 91 | 1011.4 |
| 20260831151042 | 53 | 249 | 0.0 | 2.0 | 0.00 | 0.00 | 0.00 | 91 | 1011.5 |
| 20260831150642 | 53 | 247 | 0.0 | 4.0 | 0.00 | 0.00 | 0.00 | 91 | 1011.4 |
| 20260831150042 | 53 | 247 | 0.0 | 4.0 | 0.00 | 0.00 | 0.00 | 91 | 1011.5 |
| 20260831145542 | 52 | 300 | 1.0 | 5.0 | 0.00 | 0.00 | 0.00 | 91 | 1011.5 |
| 20260831145042 | 52 | 313 | 1.0 | 5.0 | 0.00 | 0.00 | 0.00 | 91 | 1011.5 |
| 20260831144542 | 52 | 308 | 0.0 | 3.0 | 0.00 | 0.00 | 0.00 | 91 | 1011.4 |
| 20260831144039 | 52 | 41 | 0.0 | 3.0 | 0.00 | 0.00 | 0.00 | 91 | 1011.5 |
| 20260831143538 | 52 | 356 | 0.0 | 3.0 | 0.00 | 0.00 | 0.00 | 91 | 1011.5 |
| 20260831143039 | 52 | 356 | 0.0 | 3.0 | 0.00 | 0.00 | 0.00 | 91 | 1011.5 |
| 20260831142538 | 52 | 20 | 0.0 | 3.0 | 0.00 | 0.00 | 0.00 | 91 | 1011.5 |
| 20260831142037 | 52 | 230 | 0.0 | 2.0 | 0.00 | 0.00 | 0.00 | 91 | 1011.5 |
| 20260831141538 | 52 | 230 | 0.0 | 2.0 | 0.00 | 0.00 | 0.00 | 91 | 1011.5 |
| 20260831141036 | 52 | 230 | 0.0 | 3.0 | 0.00 | 0.00 | 0.00 | 91 | 1011.5 |
| 20260831140536 | 52 | 230 | 1.0 | 5.0 | 0.00 | 0.00 | 0.00 | 91 | 1011.6 |
| 20260831140036 | 52 | 259 | 1.0 | 8.0 | 0.00 | 0.00 | 0.00 | 91 | 1011.6 |
| 20260831135536 | 52 | 11 | 1.0 | 8.0 | 0.00 | 0.00 | 0.00 | 91 | 1011.5 |
| 20260831135035 | 52 | 219 | 0.0 | 2.0 | 0.00 | 0.00 | 0.00 | 91 | 1011.5 |
| 20260831134534 | 52 | 346 | 0.0 | 2.0 | 0.00 | 0.00 | 0.00 | 91 | 1011.5 |
| 20260831134033 | 52 | 344 | 0.0 | 2.0 | 0.00 | 0.00 | 0.00 | 91 | 1011.6 |
| 20260831133532 | 52 | 297 | 0.0 | 2.0 | 0.00 | 0.00 | 0.00 | 91 | 1011.6 |
| 20260831133035 | 52 | 297 | 0.0 | 2.0 | 0.00 | 0.00 | 0.00 | 91 | 1011.7 |
| 20260831132532 | 52 | 296 | 0.0 | 2.0 | 0.00 | 0.00 | 0.00 | 91 | 1011.7 |
| 20260831132032 | 52 | 19 | 0.0 | 2.0 | 0.00 | 0.00 | 0.00 | 91 | 1011.7 |
| 20260831131531 | 52 | 19 | 0.0 | 2.0 | 0.00 | 0.00 | 0.00 | 91 | 1011.7 |
| 20260831131031 | 52 | 19 | 0.0 | 2.0 | 0.00 | 0.00 | 0.00 | 91 | 1011.6 |
| 20260831130530 | 52 | 19 | 1.0 | 2.0 | 0.00 | 0.00 | 0.00 | 91 | 1011.8 |
| 20260831130030 | 52 | 22 | 0.0 | 3.0 | 0.00 | 0.00 | 0.00 | 91 | 1011.8 |
| 20260831125532 | 52 | 22 | 1.0 | 3.0 | 0.00 | 0.00 | 0.00 | 91 | 1011.9 |
| 20260831125029 | 52 | 76 | 0.0 | 3.0 | 0.00 | 0.00 | 0.00 | 91 | 1011.9 |
| 20260831124529 | 52 | 40 | 0.0 | 3.0 | 0.00 | 0.00 | 0.00 | 91 | 1011.9 |
| 20260831124031 | 52 | 23 | 1.0 | 5.0 | 0.00 | 0.00 | 0.00 | 91 | 1012.0 |
| 20260831123527 | 52 | 24 | 1.0 | 5.0 | 0.00 | 0.00 | 0.00 | 91 | 1012.1 |
| 20260831123027 | 52 | 53 | 1.0 | 2.0 | 0.00 | 0.00 | 0.00 | 91 | 1012.0 |
| 20260831122527 | 52 | 331 | 0.0 | 2.0 | 0.00 | 0.00 | 0.00 | 91 | 1012.0 |
| 20260831122027 | 52 | 331 | 0.0 | 2.0 | 0.00 | 0.00 | 0.00 | 91 | 1011.9 |
| 20260831121526 | 52 | 331 | 0.0 | 1.0 | 0.00 | 0.00 | 0.00 | 91 | 1012.0 |
| 20260831121026 | 52 | 331 | 0.0 | 1.0 | 0.00 | 0.00 | 0.00 | 91 | 1012.0 |
| 20260831120526 | 52 | 331 | 0.0 | 1.0 | 0.00 | 0.00 | 0.00 | 91 | 1012.0 |
| 20260831120030 | 52 | 331 | 0.0 | 4.0 | 0.00 | 0.00 | 0.00 | 91 | 1012.0 |
| 20260831115524 | 52 | 331 | 0.0 | 4.0 | 0.00 | 0.00 | 0.00 | 90 | 1012.0 |
| 20260831115024 | 53 | 333 | 1.0 | 4.0 | 0.00 | 0.00 | 0.00 | 90 | 1012.1 |
| 20260831114523 | 53 | 264 | 0.0 | 5.0 | 0.00 | 0.00 | 0.00 | 90 | 1012.1 |
| 20260831114024 | 53 | 262 | 0.0 | 5.0 | 0.00 | 0.00 | 0.00 | 90 | 1012.2 |
| 20260831113521 | 53 | 263 | 0.0 | 2.0 | 0.00 | 0.00 | 0.00 | 90 | 1012.2 |
| 20260831113021 | 53 | 260 | 0.0 | 2.0 | 0.00 | 0.00 | 0.00 | 90 | 1012.4 |
| 20260831112521 | 53 | 261 | 0.0 | 2.0 | 0.00 | 0.00 | 0.00 | 90 | 1012.4 |
| 20260831112020 | 53 | 261 | 0.0 | 2.0 | 0.00 | 0.00 | 0.00 | 90 | 1012.4 |
| 20260831111527 | 53 | 261 | 0.0 | 3.0 | 0.00 | 0.00 | 0.00 | 90 | 1012.5 |
| 20260831111022 | 53 | 260 | 0.0 | 3.0 | 0.00 | 0.00 | 0.00 | 90 | 1012.6 |
| 20260831110519 | 53 | 167 | 0.0 | 6.0 | 0.00 | 0.00 | 0.00 | 90 | 1012.6 |
| 20260831110017 | 53 | 286 | 0.0 | 6.0 | 0.00 | 0.00 | 0.00 | 90 | 1012.6 |
| 20260831105516 | 53 | 228 | 0.0 | 5.0 | 0.00 | 0.00 | 0.00 | 90 | 1012.7 |
| 20260831105016 | 54 | 296 | 0.0 | 3.0 | 0.00 | 0.00 | 0.00 | 90 | 1012.8 |
| 20260831104524 | 54 | 329 | 0.0 | 2.0 | 0.00 | 0.00 | 0.00 | 90 | 1012.8 |
| 20260831104014 | 54 | 240 | 0.0 | 3.0 | 0.00 | 0.00 | 0.00 | 90 | 1012.8 |
| 20260831103514 | 54 | 240 | 0.0 | 3.0 | 0.00 | 0.00 | 0.00 | 90 | 1012.7 |
| 20260831103035 | 54 | 46 | 0.0 | 2.0 | 0.00 | 0.00 | 0.00 | 90 | 1012.8 |
| 20260831102513 | 54 | 46 | 0.0 | 2.0 | 0.00 | 0.00 | 0.00 | 90 | 1012.8 |
| 20260831102012 | 54 | 46 | 0.0 | 3.0 | 0.00 | 0.00 | 0.00 | 90 | 1012.9 |
| 20260831101512 | 54 | 46 | 0.0 | 3.0 | 0.00 | 0.00 | 0.00 | 89 | 1012.8 |
| 20260831101010 | 54 | 344 | 0.0 | 3.0 | 0.00 | 0.00 | 0.00 | 89 | 1012.9 |
| 20260831100511 | 54 | 272 | 1.0 | 3.0 | 0.00 | 0.00 | 0.00 | 89 | 1012.9 |
| 20260831100011 | 54 | 268 | 0.0 | 2.0 | 0.00 | 0.00 | 0.00 | 89 | 1012.9 |
| 20260831095508 | 55 | 276 | 0.0 | 7.0 | 0.00 | 0.00 | 0.00 | 89 | 1013.0 |
| 20260831095008 | 55 | 276 | 1.0 | 7.0 | 0.00 | 0.00 | 0.00 | 89 | 1013.1 |
| 20260831094513 | 55 | 234 | 0.0 | 3.0 | 0.00 | 0.00 | 0.00 | 89 | 1013.2 |
| 20260831094006 | 55 | 32 | 0.0 | 2.0 | 0.00 | 0.00 | 0.00 | 89 | 1013.2 |
| 20260831093505 | 55 | 32 | 0.0 | 4.0 | 0.00 | 0.00 | 0.00 | 89 | 1013.3 |
| 20260831093006 | 55 | 34 | 0.0 | 4.0 | 0.00 | 0.00 | 0.00 | 89 | 1013.4 |
| 20260831092504 | 55 | 358 | 0.0 | 5.0 | 0.00 | 0.00 | 0.00 | 89 | 1013.6 |
| 20260831092004 | 55 | 264 | 0.0 | 6.0 | 0.00 | 0.00 | 0.00 | 89 | 1013.5 |
| 20260831091503 | 55 | 279 | 0.0 | 6.0 | 0.00 | 0.00 | 0.00 | 89 | 1013.5 |
| 20260831091002 | 55 | 276 | 0.0 | 3.0 | 0.00 | 0.00 | 0.00 | 88 | 1013.4 |
| 20260831090504 | 56 | 277 | 0.0 | 3.0 | 0.00 | 0.00 | 0.00 | 89 | 1013.3 |
| 20260831090001 | 56 | 314 | 0.0 | 2.0 | 0.00 | 0.00 | 0.00 | 88 | 1013.4 |
| 20260831085600 | 56 | 314 | 0.0 | 3.0 | 0.00 | 0.00 | 0.00 | 88 | 1013.5 |
| 20260831085200 | 56 | 236 | 0.0 | 3.0 | 0.00 | 0.00 | 0.00 | 88 | 1013.5 |
| 20260831084559 | 56 | 196 | 0.0 | 3.0 | 0.00 | 0.00 | 0.00 | 88 | 1013.6 |
| 20260831084057 | 56 | 196 | 0.0 | 6.0 | 0.00 | 0.00 | 0.00 | 88 | 1013.8 |
| 20260831083600 | 56 | 202 | 3.0 | 7.0 | 0.00 | 0.00 | 0.00 | 88 | 1013.9 |
| 20260831083057 | 56 | 300 | 1.0 | 5.0 | 0.00 | 0.00 | 0.00 | 87 | 1013.9 |
| 20260831082555 | 57 | 256 | 1.0 | 9.0 | 0.00 | 0.00 | 0.00 | 87 | 1013.9 |
| 20260831082057 | 57 | 353 | 2.0 | 9.0 | 0.00 | 0.00 | 0.00 | 87 | 1014.0 |
| 20260831081554 | 57 | 284 | 1.0 | 4.0 | 0.00 | 0.00 | 0.00 | 87 | 1013.9 |
| 20260831081054 | 57 | 1 | 0.0 | 3.0 | 0.00 | 0.00 | 0.00 | 86 | 1014.0 |
| 20260831080553 | 57 | 1 | 1.0 | 3.0 | 0.00 | 0.00 | 0.00 | 86 | 1014.1 |
| 20260831075551 | 57 | 266 | 0.0 | 2.0 | 0.00 | 0.00 | 0.00 | 87 | 1014.2 |